This is the latest recevied weather packets stored in our database for station/object KD5BIG-13. If no packets are shown the sender has not sent any weather packets the latest 10 day(s).
| Time | Temp. | Humidity | Pressure | Rain* | Wind** | Luminosity | Snow |
|---|---|---|---|---|---|---|---|
| 1778030531 | 24.44° C | 82% | 1013.5 hPa | 0 mm | - | 0 W/m² | - |
| 1778030228 | 24.44° C | 82% | 1013.4 hPa | 0 mm | - | 0 W/m² | - |
| 1778029924 | 24.44° C | 82% | 1013.5 hPa | 0 mm | - | 0 W/m² | - |
| 1778029623 | 24.44° C | 82% | 1013.5 hPa | 0 mm | - | 0 W/m² | - |
| 1778029320 | 24.44° C | 82% | 1013.5 hPa | 0 mm | - | 0 W/m² | - |
| 1778029017 | 24.44° C | 82% | 1013.5 hPa | 0 mm | - | 0 W/m² | - |
| 1778028713 | 24.44° C | 83% | 1013.4 hPa | 0 mm | - | 1 W/m² | - |
| 1778028410 | 24.44° C | 83% | 1013.3 hPa | 0 mm | - | 2 W/m² | - |
| 1778028107 | 24.44° C | 82% | 1013.5 hPa | 0 mm | - | 3 W/m² | - |
| 1778027803 | 24.44° C | 82% | 1013.3 hPa | 0 mm | - | 5 W/m² | - |
| 1778027500 | 25° C | 81% | 1013.2 hPa | 0 mm | - | 8 W/m² | - |
| 1778027195 | 25° C | 81% | 1013 hPa | 0 mm | - | 13 W/m² | - |
| 1778026892 | 25° C | 81% | 1013.1 hPa | 0 mm | - | 17 W/m² | - |
| 1778026588 | 25° C | 81% | 1013.1 hPa | 0 mm | - | 20 W/m² | - |
| 1778026285 | 25° C | 81% | 1013.1 hPa | 0 mm | - | 15 W/m² | - |
| 1778025982 | 25° C | 81% | 1013.2 hPa | 0 mm | - | 17 W/m² | - |
| 1778025680 | 25° C | 80% | 1013.2 hPa | 0 mm | - | 27 W/m² | - |
| 1778025378 | 25° C | 80% | 1013.2 hPa | 0 mm | - | 27 W/m² | - |
| 1778025074 | 25° C | 79% | 1013.2 hPa | 0 mm | - | 33 W/m² | - |
| 1778024771 | 25° C | 80% | 1013.2 hPa | 0 mm | - | 55 W/m² | - |
| 1778024468 | 25° C | 79% | 1013.1 hPa | 0 mm | - | 37 W/m² | - |
| 1778024166 | 25.56° C | 79% | 1013.2 hPa | 0 mm | - | 37 W/m² | - |
| 1778023863 | 25.56° C | 79% | 1013.4 hPa | 0 mm | - | 54 W/m² | - |
| 1778023561 | 25.56° C | 79% | 1013.3 hPa | 0 mm | - | 88 W/m² | - |
| 1778023258 | 25.56° C | 78% | 1013.3 hPa | 0 mm | - | 53 W/m² | - |
* Rain latest hour (hover to see other rain measurements)
** Current wind speed in m/s (hover to see current wind gust speed)